Regional Weather Roundup
Issued by NWS

Home | Current Version | Previous Version | Text Only | Print | Product List | Glossary On
Versions: 1 2 3 4 5 6 7 8 9 10 11 12 13 14 15 16 17 18 19 20 21 22 23 24 25 26 27 28 29 30 31 32 33 34 35 36 37 38 39 40 41 42 43 44 45 46 47 48 49 50
401
ASUS43 KBIS 081510
RWRND

NORTH DAKOTA REGIONAL WEATHER ROUNDUP
NATIONAL WEATHER SERVICE BISMARCK ND
900 AM CST MON FEB 08 2016

NOTE: "FAIR" INDICATES FEW OR NO CLOUDS BELOW 12,000 FEET WITH NO
SIGNIFICANT WEATHER AND/OR OBSTRUCTIONS TO VISIBILITY.


NDZ001>003-009>011-017-081600-
NORTHWEST NORTH DAKOTA

CITY           SKY/WX    TMP DP  RH WIND       PRES   REMARKS
WILLISTON      CLOUDY    23  16  74 CALM      30.37S
MINOT          PTCLDY    24  14  65 W21       30.28R WCI   9
MINOT AFB      CLOUDY    22  17  81 NW18      30.27S WCI   7
$$

NDZ018>021-031>035-040>046-081600-
SOUTHWEST NORTH DAKOTA

CITY           SKY/WX    TMP DP  RH WIND       PRES   REMARKS
BISMARCK       CLEAR     27  17  66 NW16G22   30.29R WCI  15
DICKINSON      CLOUDY    21  14  74 NW17      30.29F WCI   7
GARRISON         N/A     21  17  84 NW16      30.28S WCI   7
HETTINGER ARPT CLOUDY    22  14  71 NW17      30.34R WCI   8
$$

NDZ004>008-012>016-024-026-027-054-081600-
NORTHEAST NORTH DAKOTA

CITY           SKY/WX    TMP DP  RH WIND       PRES   REMARKS
GRAND FORKS    LGT SNOW  14   8  77 N22G33    30.18S BLWGSNOWWCI  -4
GRND FRKS AFB  LGT SNOW  13   8  79 N21       30.19R WCI  -5
DEVILS LAKE    FLURRIES  16  10  77 NW23G29   30.20R WCI  -2
$$

NDZ022-023-025-028>030-036>039-047>053-081600-
SOUTHEAST NORTH DAKOTA

CITY           SKY/WX    TMP DP  RH WIND       PRES   REMARKS
FARGO          LGT SNOW  14   8  77 N21G31    30.17R WCI  -4
JAMESTOWN      CLOUDY    19  10  68 N26G33    30.18R WCI   1
$$





USA.gov is the U.S. government's official web portal to all federal, state and local government web resources and services.